Time,TemperatureF,DewpointF,PressureIn,WindDirection,WindDirectionDegrees,WindSpeedMPH,WindSpeedGustMPH,Humidity,HourlyPrecipIn,Conditions,Clouds,dailyrainin,SoftwareType,DateUTC
2013-06-24 00:02:00,75.0,62.0,-100.00,SSW,205,3.0,6.0,63,0.00,,,-99.99,,2013-06-24 04:02:00,
2013-06-24 00:12:00,75.0,62.0,-100.00,SSW,210,2.0,6.0,65,0.00,,,-99.99,,2013-06-24 04:12:00,
2013-06-24 00:22:00,75.0,62.0,-100.00,SSW,200,3.0,5.0,65,0.00,,,-99.99,,2013-06-24 04:22:00,
2013-06-24 00:33:00,75.0,62.0,-100.00,SW,230,3.0,6.0,65,0.00,,,-99.99,,2013-06-24 04:33:00,
2013-06-24 00:43:00,74.0,63.0,-100.00,SW,230,3.0,6.0,66,0.00,,,-99.99,,2013-06-24 04:43:00,
2013-06-24 00:52:00,74.0,63.0,-100.00,WSW,250,4.0,6.0,67,0.00,,,-99.99,,2013-06-24 04:52:00,
2013-06-24 01:02:00,73.0,63.0,-100.00,West,275,2.0,4.0,72,0.00,,,-99.99,,2013-06-24 05:02:00,
2013-06-24 01:12:00,72.0,63.0,-100.00,WNW,295,2.0,4.0,74,0.00,,,-99.99,,2013-06-24 05:12:00,
2013-06-24 01:22:00,71.0,63.0,-100.00,WNW,300,2.0,3.0,75,0.00,,,-99.99,,2013-06-24 05:22:00,
2013-06-24 01:46:00,70.0,63.0,-100.00,WSW,250,1.0,3.0,77,0.00,,,-99.99,,2013-06-24 05:46:00,
2013-06-24 01:53:00,71.0,63.0,-100.00,WSW,250,1.0,2.0,76,0.00,,,-99.99,,2013-06-24 05:53:00,
2013-06-24 02:08:00,71.0,63.0,-100.00,WSW,240,1.0,2.0,75,0.00,,,-99.99,,2013-06-24 06:08:00,
2013-06-24 02:24:00,70.0,63.0,-100.00,SW,230,1.0,1.0,76,0.00,,,-99.99,,2013-06-24 06:24:00,
2013-06-24 02:45:00,69.0,62.0,-100.00,SSW,195,1.0,1.0,78,0.00,,,-99.99,,2013-06-24 06:45:00,
2013-06-24 02:53:00,69.0,63.0,-100.00,SSW,195,0.0,1.0,78,0.00,,,-99.99,,2013-06-24 06:53:00,
2013-06-24 03:05:00,69.0,62.0,-100.00,SSE,150,1.0,1.0,80,0.00,,,-99.99,,2013-06-24 07:05:00,
2013-06-24 03:14:00,68.0,63.0,-100.00,SSE,165,1.0,1.0,82,0.00,,,-99.99,,2013-06-24 07:14:00,
2013-06-24 03:29:00,68.0,63.0,-100.00,SSE,165,0.0,2.0,82,0.00,,,-99.99,,2013-06-24 07:29:00,
2013-06-24 03:37:00,69.0,63.0,-100.00,NNW,340,0.0,1.0,81,0.00,,,-99.99,,2013-06-24 07:37:00,
2013-06-24 03:47:00,68.0,62.0,-100.00,West,265,0.0,0.0,81,0.00,,,-99.99,,2013-06-24 07:47:00,
2013-06-24 03:55:00,67.0,62.0,-100.00,South,170,2.0,3.0,82,0.00,,,-99.99,,2013-06-24 07:55:00,
2013-06-24 04:04:00,67.0,62.0,-100.00,South,175,3.0,4.0,83,0.00,,,-99.99,,2013-06-24 08:04:00,
2013-06-24 04:14:00,68.0,62.0,-100.00,South,180,1.0,4.0,79,0.00,,,-99.99,,2013-06-24 08:14:00,
2013-06-24 04:26:00,69.0,62.0,-100.00,NNE,20,0.0,2.0,80,0.00,,,-99.99,,2013-06-24 08:26:00,
2013-06-24 04:35:00,68.0,62.0,-100.00,South,175,1.0,1.0,81,0.00,,,-99.99,,2013-06-24 08:35:00,
2013-06-24 04:46:00,67.0,62.0,-100.00,SSE,165,1.0,3.0,82,0.00,,,-99.99,,2013-06-24 08:46:00,
2013-06-24 04:53:00,67.0,62.0,-100.00,SSE,165,1.0,3.0,83,0.00,,,-99.99,,2013-06-24 08:53:00,
2013-06-24 05:06:00,68.0,61.0,-100.00,WSW,250,0.0,1.0,80,0.00,,,-99.99,,2013-06-24 09:06:00,
2013-06-24 05:15:00,67.0,62.0,-100.00,South,180,0.0,1.0,80,0.00,,,-99.99,,2013-06-24 09:15:00,
2013-06-24 05:26:00,66.0,62.0,-100.00,WNW,285,2.0,3.0,84,0.00,,,-99.99,,2013-06-24 09:26:00,
2013-06-24 05:37:00,65.0,61.0,-100.00,West,280,2.0,4.0,86,0.00,,,-99.99,,2013-06-24 09:37:00,
2013-06-24 05:47:00,65.0,61.0,-100.00,WSW,250,3.0,4.0,86,0.00,,,-99.99,,2013-06-24 09:47:00,
2013-06-24 05:56:00,67.0,62.0,-100.00,WSW,240,1.0,5.0,83,0.00,,,-99.99,,2013-06-24 09:56:00,
2013-06-24 06:05:00,67.0,61.0,-100.00,SW,235,2.0,6.0,79,0.00,,,-99.99,,2013-06-24 10:05:00,
2013-06-24 06:24:00,67.0,61.0,-100.00,South,180,0.0,1.0,81,0.00,,,-99.99,,2013-06-24 10:24:00,
2013-06-24 06:37:00,67.0,61.0,-100.00,WSW,245,2.0,4.0,79,0.00,,,-99.99,,2013-06-24 10:37:00,
2013-06-24 07:03:00,69.0,61.0,-100.00,WSW,240,1.0,3.0,75,0.00,,,-99.99,,2013-06-24 11:03:00,
2013-06-24 07:15:00,70.0,61.0,-100.00,SSW,205,2.0,4.0,74,0.00,,,-99.99,,2013-06-24 11:15:00,
2013-06-24 07:29:00,70.0,61.0,-100.00,SSW,195,1.0,3.0,73,0.00,,,-99.99,,2013-06-24 11:29:00,
2013-06-24 08:36:00,74.0,63.0,-100.00,WSW,240,4.0,6.0,67,0.00,,,-99.99,,2013-06-24 12:36:00,
2013-06-24 08:53:00,76.0,64.0,-100.00,WSW,240,4.0,6.0,65,0.00,,,-99.99,,2013-06-24 12:53:00,
2013-06-24 09:24:00,77.0,63.0,-100.00,WSW,255,3.0,6.0,62,0.00,,,-99.99,,2013-06-24 13:24:00,
2013-06-24 09:36:00,77.0,63.0,-100.00,WSW,255,4.0,9.0,63,0.00,,,-99.99,,2013-06-24 13:36:00,
2013-06-24 09:44:00,78.0,62.0,-100.00,WSW,250,4.0,9.0,59,0.00,,,-99.99,,2013-06-24 13:44:00,
2013-06-24 10:16:00,79.0,63.0,-100.00,WSW,250,4.0,6.0,57,0.00,,,-99.99,,2013-06-24 14:16:00,
2013-06-24 10:45:00,80.0,64.0,-100.00,WNW,285,5.0,9.0,57,0.00,,,-99.99,,2013-06-24 14:45:00,
2013-06-24 11:05:00,81.0,64.0,-100.00,WNW,285,4.0,10.0,56,0.00,,,-99.99,,2013-06-24 15:05:00,
2013-06-24 12:04:00,82.0,63.0,-100.00,West,270,9.0,13.0,53,0.00,,,-99.99,,2013-06-24 16:04:00,
2013-06-24 13:05:00,83.0,64.0,-100.00,North,350,3.0,9.0,52,0.00,,,-99.99,,2013-06-24 17:05:00,
2013-06-24 13:46:00,83.0,64.0,-100.00,WSW,255,4.0,11.0,51,0.00,,,-99.99,,2013-06-24 17:46:00,
2013-06-24 14:14:00,83.0,64.0,-100.00,WSW,255,8.0,11.0,51,0.00,,,-99.99,,2013-06-24 18:14:00,
2013-06-24 14:46:00,84.0,61.0,-100.00,WSW,240,6.0,12.0,45,0.00,,,-99.99,,2013-06-24 18:46:00,
2013-06-24 15:45:00,87.0,61.0,-100.00,SW,215,4.0,9.0,42,0.00,,,-99.99,,2013-06-24 19:45:00,
2013-06-24 16:12:00,86.0,62.0,-100.00,SW,215,6.0,12.0,44,0.00,,,-99.99,,2013-06-24 20:12:00,
2013-06-24 16:24:00,86.0,61.0,-100.00,WSW,250,6.0,11.0,43,0.00,,,-99.99,,2013-06-24 20:24:00,
2013-06-24 16:34:00,86.0,61.0,-100.00,West,275,7.0,12.0,43,0.00,,,-99.99,,2013-06-24 20:34:00,
2013-06-24 16:45:00,87.0,61.0,-100.00,WSW,245,7.0,12.0,42,0.00,,,-99.99,,2013-06-24 20:45:00,
2013-06-24 17:04:00,86.0,63.0,-100.00,SW,235,7.0,11.0,47,0.00,,,-99.99,,2013-06-24 21:04:00,
2013-06-24 17:13:00,86.0,64.0,-100.00,WSW,255,5.0,11.0,48,0.00,,,-99.99,,2013-06-24 21:13:00,
2013-06-24 17:25:00,85.0,64.0,-100.00,SW,225,4.0,12.0,49,0.00,,,-99.99,,2013-06-24 21:25:00,
2013-06-24 17:37:00,86.0,63.0,-100.00,WSW,250,7.0,10.0,46,0.00,,,-99.99,,2013-06-24 21:37:00,
2013-06-24 17:46:00,86.0,64.0,-100.00,WNW,285,4.0,11.0,47,0.00,,,-99.99,,2013-06-24 21:46:00,
2013-06-24 18:23:00,84.0,64.0,-100.00,SW,230,4.0,9.0,50,0.00,,,-99.99,,2013-06-24 22:23:00,
2013-06-24 18:36:00,84.0,63.0,-100.00,WSW,240,6.0,9.0,49,0.00,,,-99.99,,2013-06-24 22:36:00,
2013-06-24 18:47:00,83.0,62.0,-100.00,WSW,245,11.0,15.0,49,0.00,,,-99.99,,2013-06-24 22:47:00,
2013-06-24 18:55:00,84.0,64.0,-100.00,WSW,250,7.0,12.0,51,0.00,,,-99.99,,2013-06-24 22:55:00,
2013-06-24 19:05:00,82.0,64.0,-100.00,WSW,240,9.0,14.0,53,0.00,,,-99.99,,2013-06-24 23:05:00,
2013-06-24 19:14:00,82.0,63.0,-100.00,WSW,245,6.0,10.0,54,0.00,,,-99.99,,2013-06-24 23:14:00,
2013-06-24 19:27:00,83.0,64.0,-100.00,WSW,255,6.0,9.0,52,0.00,,,-99.99,,2013-06-24 23:27:00,
2013-06-24 19:45:00,82.0,63.0,-100.00,WSW,245,6.0,10.0,51,0.00,,,-99.99,,2013-06-24 23:45:00,
2013-06-24 19:53:00,82.0,63.0,-100.00,WSW,240,3.0,11.0,52,0.00,,,-99.99,,2013-06-24 23:53:00,
2013-06-24 20:06:00,82.0,63.0,-100.00,WSW,250,4.0,7.0,53,0.00,,,-99.99,,2013-06-25 00:06:00,
2013-06-24 20:12:00,81.0,64.0,-100.00,WSW,245,4.0,8.0,56,0.00,,,-99.99,,2013-06-25 00:12:00,
2013-06-24 20:24:00,80.0,64.0,-100.00,WSW,240,4.0,9.0,58,0.00,,,-99.99,,2013-06-25 00:24:00,
2013-06-24 20:46:00,79.0,64.0,-100.00,WSW,240,6.0,10.0,59,0.00,,,-99.99,,2013-06-25 00:46:00,
2013-06-24 20:54:00,79.0,64.0,-100.00,SW,235,5.0,9.0,60,0.00,,,-99.99,,2013-06-25 00:54:00,
2013-06-24 21:04:00,78.0,64.0,-100.00,WSW,255,4.0,6.0,61,0.00,,,-99.99,,2013-06-25 01:04:00,
2013-06-24 21:44:00,77.0,64.0,-100.00,WSW,250,4.0,6.0,63,0.00,,,-99.99,,2013-06-25 01:44:00,
2013-06-24 22:16:00,76.0,64.0,-100.00,SW,220,2.0,6.0,66,0.00,,,-99.99,,2013-06-25 02:16:00,
2013-06-24 22:25:00,76.0,64.0,-100.00,SW,235,2.0,6.0,67,0.00,,,-99.99,,2013-06-25 02:25:00,
2013-06-24 22:37:00,75.0,64.0,-100.00,WSW,240,2.0,6.0,67,0.00,,,-99.99,,2013-06-25 02:37:00,
2013-06-24 23:16:00,74.0,63.0,-100.00,SW,220,2.0,6.0,68,0.00,,,-99.99,,2013-06-25 03:16:00,
2013-06-24 23:44:00,74.0,64.0,-100.00,SW,225,4.0,6.0,69,0.00,,,-99.99,,2013-06-25 03:44:00,